Hourly Data Report for August 07, 2020

SVARTEVAEG
NUNAVUT
Current Station Operator: ECCC - MSC

81°09'39.000" N
91°48'59.060" W
72.00 m
2403833
71872
NSG

Download Data

Hourly Data (August 2020)
Hourly Data Report for August 7, 2020
TIME Temp Definition
°C
Dew Point Definition
°C
Rel Hum Definition
%
Wind Dir Definition
10's deg

Wind Spd Definition
km/h
Visibility Definition
km
Stn Press Definition
kPa
Hmdx Definition


Wind Chill Definition


Weather Definition


00:00 -0.8 -2.3 90 34 27   99.78   -7 LegendNANA
01:00 -1.2 -2.3 92 34 29   99.81   -8 LegendNANA
02:00 -1.1 -2.4 91 34 27   99.83   -8 LegendNANA
03:00 -0.7 -2.1 90 34 28   99.84   -7 LegendNANA
04:00 -1.0 -2.5 89 34 29   99.88   -8 LegendNANA
05:00 -1.0 -2.2 92 34 28   99.90   -8 LegendNANA
06:00 -1.0 -2.6 89 34 31   99.91   -8 LegendNANA
07:00 -1.2 -2.6 90 34 31   99.94   -8 LegendNANA
08:00 -1.3 -2.9 89 34 29   99.95   -8 LegendNANA
09:00 -0.8 -2.5 88 35 28   99.96   -7 LegendNANA
10:00 -0.8 -2.5 88 35 28   99.98   -7 LegendNANA
11:00 -0.3 -2.8 83 35 31   100.00   -7 LegendNANA
12:00 -0.4 -3.0 83 35 30   100.02   -7 LegendNANA
13:00 -0.5 -2.8 84 34 30   100.05   -7 LegendNANA
14:00 -1.0 -2.9 87 34 33   100.10   -8 LegendNANA
15:00 -0.9 -2.8 87 34 31   100.14   -8 LegendNANA
16:00 -1.2 -3.1 87 34 32   100.18   -8 LegendNANA
17:00 -1.2 -3.1 86 33 26   100.22   -8 LegendNANA
18:00 -1.6 -3.3 88 33 30   100.24   -9 LegendNANA
19:00 -1.6 -3.4 88 33 26   100.28   -8 LegendNANA
20:00 -1.6 -3.3 88 32 26   100.29   -8 LegendNANA
21:00 -1.8 -3.2 90 33 24   100.30   -8 LegendNANA
22:00 -1.9 -3.3 90 33 22   100.31   -8 LegendNANA
23:00 -2.2 -3.3 92 33 26   100.33   -9 LegendNANA

Notes on Data Quality.

Legend

  • E = Estimated
  • M = Missing
  • NA = Not Available*
  • [empty] = Indicates an unobserved value
Date modified: